"datetime","temp","dp","rain_mm","uv","solar","mb","wind_mph","gust_mph","windchill","rh"
"2015-01-10 00:00:00",12.4,11.3,0.0,0.0,0,1016.4,1,3,"",93
"2015-01-10 00:01:00",12.4,11.3,0.0,0.0,0,1016.3,1,3,"",93
"2015-01-10 00:02:00",12.4,11.3,0.0,0.0,0,1016.2,1,7,"",93
"2015-01-10 00:03:00",12.4,11.3,0.0,0.0,0,1016.3,2,5,"",93
"2015-01-10 00:04:00",12.4,11.3,0.0,0.0,0,1016.3,2,3,"",93
"2015-01-10 00:05:00",12.4,11.3,0.0,0.0,0,1016.2,1,3,"",93
"2015-01-10 00:06:00",12.4,11.3,0.0,0.0,0,1016.2,1,3,"",93
"2015-01-10 00:07:00",12.4,11.3,0.0,0.0,0,1016.2,1,3,"",93
"2015-01-10 00:08:00",12.4,11.3,0.0,0.0,0,1016.2,1,1,"",93
"2015-01-10 00:09:00",12.4,11.3,0.0,0.0,0,1016.2,1,14,"",93
"2015-01-10 00:10:00",12.4,11.3,0.0,0.0,0,1016.2,5,5,"",93
"2015-01-10 00:11:00",12.4,11.3,0.0,0.0,0,1016.1,2,5,"",93
"2015-01-10 00:12:00",12.4,11.3,0.0,0.0,0,1016.1,2,3,"",93
"2015-01-10 00:13:00",12.4,11.3,0.0,0.0,0,1016.1,2,3,"",93
"2015-01-10 00:14:00",12.4,11.3,0.0,0.0,0,1016.1,2,3,"",93
"2015-01-10 00:15:00",12.4,11.3,0.0,0.0,0,1016.1,2,5,"",93
"2015-01-10 00:16:00",12.4,11.3,0.0,0.0,0,1016.1,2,5,"",93
"2015-01-10 00:17:00",12.3,11.2,0.0,0.0,0,1016.1,1,3,"",93
"2015-01-10 00:18:00",12.3,11.2,0.0,0.0,0,1016.1,2,3,"",93
"2015-01-10 00:19:00",12.3,11.2,0.0,0.0,0,1016.1,2,8,"",93
"2015-01-10 00:20:00",12.3,11.2,0.0,0.0,0,1016.2,3,8,"",93
"2015-01-10 00:21:00",12.3,11.2,0.0,0.0,0,1016.2,2,5,"",93
"2015-01-10 00:22:00",12.3,11.2,0.0,0.0,0,1016.2,2,3,"",93
"2015-01-10 00:23:00",12.3,11.2,0.0,0.0,0,1016.1,2,3,"",93
"2015-01-10 00:24:00",12.3,11.2,0.0,0.0,0,1016.2,1,5,"",93
"2015-01-10 00:25:00",12.3,11.2,0.0,0.0,0,1016.1,2,3,"",93
"2015-01-10 00:26:00",12.3,11.2,0.0,0.0,0,1016.1,1,3,"",93
"2015-01-10 00:27:00",12.3,11.2,0.0,0.0,0,1016.1,1,1,"",93
"2015-01-10 00:28:00",12.3,11.2,0.0,0.0,0,1016.1,1,3,"",93
"2015-01-10 00:29:00",12.3,11.2,0.0,0.0,0,1016.1,2,3,"",93
"2015-01-10 00:30:00",12.3,11.2,0.0,0.0,0,1016.1,2,5,"",93
"2015-01-10 00:31:00",12.3,11.2,0.0,0.0,0,1016.0,1,7,"",93
"2015-01-10 00:32:00",12.3,11.2,0.0,0.0,0,1016.0,2,1,"",93
"2015-01-10 00:33:00",12.3,11.2,0.0,0.0,0,1016.0,1,1,"",93
"2015-01-10 00:34:00",12.3,11.2,0.0,0.0,0,1016.0,1,1,"",93
"2015-01-10 00:35:00",12.3,11.2,0.0,0.0,0,1016.0,1,1,"",93
"2015-01-10 00:36:00",12.3,11.2,0.0,0.0,0,1016.0,1,3,"",93
"2015-01-10 00:37:00",12.3,11.2,0.0,0.0,0,1016.0,1,3,"",93
"2015-01-10 00:38:00",12.3,11.2,0.0,0.0,0,1015.9,1,3,"",93
"2015-01-10 00:39:00",12.3,11.2,0.0,0.0,0,1015.9,0,3,"",93
"2015-01-10 00:40:00",12.3,11.2,0.0,0.0,0,1016.0,1,1,"",93
"2015-01-10 00:41:00",12.3,11.2,0.0,0.0,0,1016.0,1,3,"",93
"2015-01-10 00:42:00",12.3,11.2,0.0,0.0,0,1015.9,1,3,"",93
"2015-01-10 00:43:00",12.3,11.3,0.0,0.0,0,1015.9,1,3,"",94
"2015-01-10 00:44:00",12.3,11.2,0.0,0.0,0,1015.9,1,1,"",93
"2015-01-10 00:45:00",12.2,11.3,0.0,0.0,0,1015.9,1,3,"",94
"2015-01-10 00:46:00",12.2,11.1,0.0,0.0,0,1015.9,1,1,"",93
"2015-01-10 00:47:00",12.2,11.3,0.0,0.0,0,1015.9,1,8,"",94
"2015-01-10 00:48:00",12.2,11.3,0.0,0.0,0,1015.9,2,3,"",94
"2015-01-10 00:49:00",12.2,11.1,0.0,0.0,0,1016.0,2,5,"",93
"2015-01-10 00:50:00",12.2,11.3,0.0,0.0,0,1015.9,2,10,"",94
"2015-01-10 00:51:00",12.2,11.2,0.0,0.0,0,1015.9,5,15,"",94
"2015-01-10 00:52:00",12.2,11.1,0.0,0.0,0,1015.9,2,3,"",93
"2015-01-10 00:53:00",12.2,11.1,0.0,0.0,0,1015.9,2,5,"",93
"2015-01-10 00:54:00",12.2,11.1,0.0,0.0,0,1015.9,2,5,"",93
"2015-01-10 00:55:00",12.2,11.1,0.0,0.0,0,1015.9,2,3,"",93
"2015-01-10 00:56:00",12.2,11.1,0.0,0.0,0,1015.8,1,5,"",93
"2015-01-10 00:57:00",12.2,11.1,0.0,0.0,0,1015.8,2,3,"",93
"2015-01-10 00:58:00",12.2,11.1,0.0,0.0,0,1015.8,1,1,"",93
"2015-01-10 00:59:00",12.2,11.1,0.0,0.0,0,1015.8,1,1,"",93
"2015-01-10 01:00:00",12.1,11.0,0.0,0.0,0,1015.8,1,1,"",93
"2015-01-10 01:01:00",12.1,11.0,0.0,0.0,0,1015.8,1,1,"",93
"2015-01-10 01:02:00",12.1,11.0,0.0,0.0,0,1015.8,0,1,"",93
"2015-01-10 01:03:00",12.1,11.0,0.0,0.0,0,1015.8,0,1,"",93
"2015-01-10 01:04:00",12.1,11.0,0.0,0.0,0,1015.7,0,5,"",93
"2015-01-10 01:05:00",12.1,11.0,0.0,0.0,0,1015.7,3,8,"",93
"2015-01-10 01:06:00",12.1,11.0,0.0,0.0,0,1015.7,2,3,"",93
"2015-01-10 01:07:00",12.1,11.0,0.0,0.0,0,1015.7,2,7,"",93
"2015-01-10 01:08:00",12.1,11.0,0.0,0.0,0,1015.7,1,1,"",93
"2015-01-10 01:09:00",12.1,11.0,0.0,0.0,0,1015.7,1,1,"",93
"2015-01-10 01:10:00",12.1,11.0,0.0,0.0,0,1015.7,1,1,"",93
"2015-01-10 01:11:00",12.1,11.0,0.0,0.0,0,1015.7,1,1,"",93
"2015-01-10 01:12:00",12.1,11.0,0.0,0.0,0,1015.7,0,1,"",93
"2015-01-10 01:13:00",12.1,11.0,0.0,0.0,0,1015.7,0,7,"",93
"2015-01-10 01:14:00",12.1,11.0,0.0,0.0,0,1015.7,3,12,"",93
"2015-01-10 01:15:00",12.1,11.0,0.0,0.0,0,1015.7,1,1,"",93
"2015-01-10 01:16:00",12.1,11.0,0.0,0.0,0,1015.6,0,1,"",93
"2015-01-10 01:17:00",12.1,11.0,0.0,0.0,0,1015.6,1,3,"",93
"2015-01-10 01:18:00",12.1,11.0,0.0,0.0,0,1015.6,2,5,"",93
"2015-01-10 01:19:00",12.1,11.0,0.0,0.0,0,1015.6,2,3,"",93
"2015-01-10 01:20:00",12.1,11.0,0.0,0.0,0,1015.6,1,1,"",93
"2015-01-10 01:21:00",12.0,11.1,0.0,0.0,0,1015.6,0,1,"",94
"2015-01-10 01:22:00",12.1,11.1,0.0,0.0,0,1015.6,1,3,"",94
"2015-01-10 01:23:00",12.0,11.1,0.0,0.0,0,1015.5,0,1,"",94
"2015-01-10 01:24:00",12.0,11.1,0.0,0.0,0,1015.6,0,0,"",94
"2015-01-10 01:25:00",12.0,11.1,0.0,0.0,0,1015.6,0,3,"",94
"2015-01-10 01:26:00",12.0,11.1,0.0,0.0,0,1015.5,2,3,"",94
"2015-01-10 01:27:00",12.0,11.1,0.0,0.0,0,1015.5,1,7,"",94
"2015-01-10 01:28:00",12.0,11.1,0.0,0.0,0,1015.5,2,3,"",94
"2015-01-10 01:29:00",12.0,11.1,0.0,0.0,0,1015.6,1,1,"",94
"2015-01-10 01:30:00",12.0,11.0,0.0,0.0,0,1015.5,1,7,"",94
"2015-01-10 01:31:00",11.9,11.0,0.0,0.0,0,1015.6,2,7,"",94
"2015-01-10 01:32:00",11.9,11.0,0.0,0.0,0,1015.6,3,15,"",94
"2015-01-10 01:33:00",11.9,11.0,0.0,0.0,0,1015.5,2,3,"",94
"2015-01-10 01:34:00",11.9,11.0,0.0,0.0,0,1015.6,2,3,"",94
"2015-01-10 01:35:00",11.9,11.0,0.0,0.0,0,1015.6,2,3,"",94
"2015-01-10 01:36:00",11.9,11.0,0.0,0.0,0,1015.6,1,15,"",94
"2015-01-10 01:37:00",11.9,11.0,0.0,0.0,0,1015.6,5,15,"",94
"2015-01-10 01:38:00",11.9,11.0,0.0,0.0,0,1015.5,3,3,"",94
"2015-01-10 01:39:00",11.9,11.0,0.0,0.0,0,1015.6,1,3,"",94
"2015-01-10 01:40:00",11.9,11.0,0.0,0.0,0,1015.7,2,3,"",94
"2015-01-10 01:41:00",11.9,11.0,0.0,0.0,0,1015.6,5,14,"",94
"2015-01-10 01:42:00",11.9,10.8,0.0,0.0,0,1015.6,3,5,"",93
"2015-01-10 01:43:00",11.9,10.8,0.0,0.0,0,1015.6,2,12,"",93
"2015-01-10 01:44:00",11.9,10.8,0.0,0.0,0,1015.6,5,5,"",93
"2015-01-10 01:45:00",11.9,10.8,0.0,0.0,0,1015.6,2,3,"",93
"2015-01-10 01:46:00",11.9,10.8,0.0,0.0,0,1015.6,1,3,"",93
"2015-01-10 01:47:00",11.9,10.8,0.0,0.0,0,1015.5,2,3,"",93
"2015-01-10 01:48:00",11.9,10.8,0.0,0.0,0,1015.6,2,7,"",93
"2015-01-10 01:49:00",11.9,10.8,0.0,0.0,0,1015.6,1,7,"",93
"2015-01-10 01:50:00",11.9,10.8,0.0,0.0,0,1015.5,2,5,"",93
"2015-01-10 01:51:00",11.9,10.8,0.0,0.0,0,1015.6,1,5,"",93
"2015-01-10 01:52:00",11.9,10.8,0.0,0.0,0,1015.5,2,5,"",93
"2015-01-10 01:53:00",11.8,10.7,0.0,0.0,0,1015.6,2,5,"",93
"2015-01-10 01:54:00",11.8,10.7,0.0,0.0,0,1015.5,1,8,"",93
"2015-01-10 01:55:00",11.8,10.7,0.0,0.0,0,1015.4,3,5,"",93
"2015-01-10 01:56:00",11.8,10.7,0.0,0.0,0,1015.4,1,3,"",93
"2015-01-10 01:57:00",11.8,10.7,0.0,0.0,0,1015.4,1,3,"",93
"2015-01-10 01:58:00",11.8,10.7,0.0,0.0,0,1015.4,1,1,"",93
"2015-01-10 01:59:00",11.8,10.7,0.0,0.0,0,1015.4,1,1,"",93
"2015-01-10 02:00:00",11.8,10.7,0.0,0.0,0,1015.3,1,5,"",93
"2015-01-10 02:01:00",11.8,10.7,0.0,0.0,0,1015.3,2,3,"",93
"2015-01-10 02:02:00",11.8,10.7,0.0,0.0,0,1015.3,2,7,"",93
"2015-01-10 02:03:00",11.8,10.7,0.0,0.0,0,1015.3,2,7,"",93
"2015-01-10 02:04:00",11.8,10.7,0.0,0.0,0,1015.2,2,3,"",93
"2015-01-10 02:05:00",11.8,10.7,0.0,0.0,0,1015.2,1,1,"",93
"2015-01-10 02:06:00",11.8,10.7,0.0,0.0,0,1015.3,1,3,"",93
"2015-01-10 02:07:00",11.8,10.7,0.0,0.0,0,1015.3,1,3,"",93
"2015-01-10 02:08:00",11.8,10.7,0.0,0.0,0,1015.2,2,7,"",93
"2015-01-10 02:09:00",11.8,10.7,0.0,0.0,0,1015.1,3,5,"",93
"2015-01-10 02:10:00",11.8,10.7,0.0,0.0,0,1015.1,2,1,"",93
"2015-01-10 02:11:00",11.8,10.7,0.0,0.0,0,1015.1,2,7,"",93
"2015-01-10 02:12:00",11.8,10.7,0.0,0.0,0,1015.1,1,1,"",93
"2015-01-10 02:13:00",11.8,10.7,0.0,0.0,0,1015.1,1,3,"",93
"2015-01-10 02:14:00",11.8,10.7,0.0,0.0,0,1015.1,1,5,"",93
"2015-01-10 02:15:00",11.8,10.5,0.0,0.0,0,1015.1,1,1,"",92
"2015-01-10 02:16:00",11.8,10.5,0.0,0.0,0,1015.0,1,5,"",92
"2015-01-10 02:17:00",11.8,10.5,0.0,0.0,0,1015.1,2,7,"",92
"2015-01-10 02:18:00",11.8,10.5,0.0,0.0,0,1015.1,3,5,"",92
"2015-01-10 02:19:00",11.8,10.5,0.0,0.0,0,1015.0,2,5,"",92
"2015-01-10 02:20:00",11.8,10.5,0.0,0.0,0,1015.1,3,8,"",92
"2015-01-10 02:21:00",11.8,10.5,0.0,0.0,0,1015.0,3,3,"",92
"2015-01-10 02:22:00",11.7,10.5,0.0,0.0,0,1014.9,3,12,"",92
"2015-01-10 02:23:00",11.7,10.5,0.0,0.0,0,1014.9,3,7,"",92
"2015-01-10 02:24:00",11.7,10.5,0.0,0.0,0,1015.0,1,1,"",92
"2015-01-10 02:25:00",11.7,10.5,0.0,0.0,0,1015.0,2,7,"",92
"2015-01-10 02:26:00",11.7,10.5,0.0,0.0,0,1015.0,2,5,"",92
"2015-01-10 02:27:00",11.7,10.5,0.0,0.0,0,1015.0,2,3,"",92
"2015-01-10 02:28:00",11.7,10.5,0.0,0.0,0,1015.0,1,1,"",92
"2015-01-10 02:29:00",11.7,10.5,0.0,0.0,0,1015.0,0,1,"",92
"2015-01-10 02:30:00",11.7,10.5,0.0,0.0,0,1015.0,0,1,"",92
"2015-01-10 02:31:00",11.7,10.5,0.0,0.0,0,1015.0,1,3,"",92
"2015-01-10 02:32:00",11.7,10.5,0.0,0.0,0,1014.9,1,1,"",92
"2015-01-10 02:33:00",11.7,10.5,0.0,0.0,0,1015.0,0,3,"",92
"2015-01-10 02:34:00",11.7,10.5,0.0,0.0,0,1014.9,1,3,"",92
"2015-01-10 02:35:00",11.7,10.4,0.0,0.0,0,1014.9,1,1,"",92
"2015-01-10 02:36:00",11.7,10.4,0.0,0.0,0,1014.9,1,12,"",92
"2015-01-10 02:37:00",11.7,10.4,0.0,0.0,0,1014.9,3,3,"",92
"2015-01-10 02:38:00",11.7,10.2,0.0,0.0,0,1014.8,2,7,"",91
"2015-01-10 02:39:00",11.7,10.3,0.0,0.0,0,1014.8,2,5,"",91
"2015-01-10 02:40:00",11.7,10.3,0.0,0.0,0,1014.8,2,5,"",91
"2015-01-10 02:41:00",11.7,10.2,0.0,0.0,0,1014.8,5,12,"",91
"2015-01-10 02:42:00",11.7,10.3,0.0,0.0,0,1014.8,2,3,"",91
"2015-01-10 02:43:00",11.7,10.2,0.0,0.0,0,1014.8,1,1,"",91
"2015-01-10 02:44:00",11.7,10.2,0.0,0.0,0,1014.8,1,15,"",91
"2015-01-10 02:45:00",11.7,10.2,0.0,0.0,0,1014.7,3,15,"",91
"2015-01-10 02:46:00",11.7,10.2,0.0,0.0,0,1014.7,1,3,"",91
"2015-01-10 02:47:00",11.7,10.2,0.0,0.0,0,1014.7,2,7,"",91
"2015-01-10 02:48:00",11.7,10.2,0.0,0.0,0,1014.7,2,7,"",91
"2015-01-10 02:49:00",11.7,10.2,0.0,0.0,0,1014.7,3,3,"",91
"2015-01-10 02:50:00",11.7,10.2,0.0,0.0,0,1014.8,2,12,"",91
"2015-01-10 02:51:00",11.7,10.2,0.0,0.0,0,1014.7,5,5,"",91
"2015-01-10 02:52:00",11.7,10.2,0.0,0.0,0,1014.7,2,18,"",91
"2015-01-10 02:53:00",11.7,10.2,0.0,0.0,0,1014.8,7,12,"",91
"2015-01-10 02:54:00",11.7,10.2,0.0,0.0,0,1014.7,3,5,"",91
"2015-01-10 02:55:00",11.7,10.2,0.0,0.0,0,1014.7,2,3,"",91
"2015-01-10 02:56:00",11.7,10.2,0.0,0.0,0,1014.6,1,3,"",91
"2015-01-10 02:57:00",11.7,10.2,0.0,0.0,0,1014.7,3,12,"",91
"2015-01-10 02:58:00",11.7,10.2,0.0,0.0,0,1014.6,7,10,"",91
"2015-01-10 02:59:00",11.7,10.2,0.0,0.0,0,1014.7,5,7,"",91
"2015-01-10 03:00:00",11.7,10.2,0.0,0.0,0,1014.6,2,3,"",91
"2015-01-10 03:01:00",11.7,10.2,0.0,0.0,0,1014.6,1,5,"",91
"2015-01-10 03:02:00",11.7,10.2,0.0,0.0,0,1014.6,3,8,"",91
"2015-01-10 03:03:00",11.7,10.2,0.0,0.0,0,1014.6,3,7,"",91
"2015-01-10 03:04:00",11.7,10.2,0.0,0.0,0,1014.6,2,3,"",91
"2015-01-10 03:05:00",11.7,10.2,0.0,0.0,0,1014.6,1,3,"",91
"2015-01-10 03:06:00",11.7,10.2,0.0,0.0,0,1014.6,1,3,"",91
"2015-01-10 03:07:00",11.7,10.2,0.0,0.0,0,1014.4,1,1,"",91
"2015-01-10 03:08:00",11.7,10.2,0.0,0.0,0,1014.4,2,10,"",91
"2015-01-10 03:09:00",11.7,10.2,0.0,0.0,0,1014.4,2,3,"",91
"2015-01-10 03:10:00",11.6,10.2,0.0,0.0,0,1014.3,2,3,"",91
"2015-01-10 03:11:00",11.6,10.2,0.0,0.0,0,1014.3,1,1,"",91
"2015-01-10 03:12:00",11.6,10.2,0.0,0.0,0,1014.3,1,5,"",91
"2015-01-10 03:13:00",11.6,10.2,0.0,0.0,0,1014.2,2,5,"",91
"2015-01-10 03:14:00",11.6,10.2,0.0,0.0,0,1014.3,1,1,"",91
"2015-01-10 03:15:00",11.6,10.2,0.0,0.0,0,1014.3,1,1,"",91
"2015-01-10 03:16:00",11.6,10.2,0.0,0.0,0,1014.2,2,5,"",91
"2015-01-10 03:17:00",11.6,10.2,0.0,0.0,0,1014.2,2,5,"",91
"2015-01-10 03:18:00",11.6,10.2,0.0,0.0,0,1014.2,2,7,"",91
"2015-01-10 03:19:00",11.6,10.2,0.0,0.0,0,1014.2,1,1,"",91
"2015-01-10 03:20:00",11.6,10.2,0.0,0.0,0,1014.2,1,5,"",91
"2015-01-10 03:21:00",11.6,10.2,0.0,0.0,0,1014.2,1,1,"",91
"2015-01-10 03:22:00",11.6,10.4,0.0,0.0,0,1014.2,0,1,"",92
"2015-01-10 03:23:00",11.6,10.4,0.0,0.0,0,1014.1,2,8,"",92
"2015-01-10 03:24:00",11.6,10.4,0.0,0.0,0,1014.0,1,3,"",92
"2015-01-10 03:25:00",11.6,10.4,0.0,0.0,0,1014.0,2,5,"",92
"2015-01-10 03:26:00",11.6,10.3,0.0,0.0,0,1014.1,2,5,"",92
"2015-01-10 03:27:00",11.6,10.3,0.0,0.0,0,1014.1,1,5,"",92
"2015-01-10 03:28:00",11.6,10.3,0.0,0.0,0,1014.0,2,10,"",92
"2015-01-10 03:29:00",11.6,10.3,0.0,0.0,0,1014.0,3,5,"",92
"2015-01-10 03:30:00",11.6,10.3,0.0,0.0,0,1014.0,3,7,"",92
"2015-01-10 03:31:00",11.6,10.3,0.0,0.0,0,1013.9,3,5,"",92
"2015-01-10 03:32:00",11.6,10.3,0.0,0.0,0,1014.0,3,7,"",92
"2015-01-10 03:33:00",11.6,10.3,0.0,0.0,0,1014.0,3,7,"",92
"2015-01-10 03:34:00",11.6,10.3,0.0,0.0,0,1014.0,2,3,"",92
"2015-01-10 03:35:00",11.6,10.3,0.0,0.0,0,1014.0,2,3,"",92
"2015-01-10 03:36:00",11.6,10.3,0.0,0.0,0,1013.9,3,12,"",92
"2015-01-10 03:37:00",11.6,10.3,0.0,0.0,0,1013.8,3,3,"",92
"2015-01-10 03:38:00",11.6,10.3,0.0,0.0,0,1013.8,2,3,"",92
"2015-01-10 03:39:00",11.6,10.3,0.0,0.0,0,1013.8,1,8,"",92
"2015-01-10 03:40:00",11.6,10.3,0.0,0.0,0,1013.9,2,8,"",92
"2015-01-10 03:41:00",11.6,10.3,0.0,0.0,0,1013.8,1,7,"",92
"2015-01-10 03:42:00",11.6,10.3,0.0,0.0,0,1013.8,2,8,"",92
"2015-01-10 03:43:00",11.6,10.3,0.0,0.0,0,1013.8,2,8,"",92
"2015-01-10 03:44:00",11.6,10.3,0.0,0.0,0,1013.7,2,3,"",92
"2015-01-10 03:45:00",11.6,10.3,0.0,0.0,0,1013.7,1,3,"",92
"2015-01-10 03:46:00",11.6,10.3,0.0,0.0,0,1013.7,1,3,"",92
"2015-01-10 03:47:00",11.5,10.3,0.0,0.0,0,1013.7,1,7,"",92
"2015-01-10 03:48:00",11.6,10.3,0.0,0.0,0,1013.6,2,12,"",92
"2015-01-10 03:49:00",11.6,10.3,0.0,0.0,0,1013.5,3,5,"",92
"2015-01-10 03:50:00",11.5,10.3,0.0,0.0,0,1013.6,1,3,"",92
"2015-01-10 03:51:00",11.5,10.3,0.0,0.0,0,1013.6,1,7,"",92
"2015-01-10 03:52:00",11.5,10.2,0.0,0.0,0,1013.7,2,3,"",92
"2015-01-10 03:53:00",11.5,10.3,0.0,0.0,0,1013.6,1,5,"",92
"2015-01-10 03:54:00",11.5,10.3,0.0,0.0,0,1013.4,3,14,"",92
"2015-01-10 03:55:00",11.5,10.3,0.0,0.0,0,1013.5,5,5,"",92
"2015-01-10 03:56:00",11.5,10.2,0.0,0.0,0,1013.6,1,5,"",92
"2015-01-10 03:57:00",11.5,10.2,0.0,0.0,0,1013.5,2,10,"",92
"2015-01-10 03:58:00",11.5,10.2,0.0,0.0,0,1013.5,3,5,"",92
"2015-01-10 03:59:00",11.5,10.2,0.0,0.0,0,1013.5,2,3,"",92
"2015-01-10 04:00:00",11.5,10.2,0.0,0.0,0,1013.4,2,5,"",92
"2015-01-10 04:01:00",11.5,10.2,0.0,0.0,0,1013.3,1,3,"",92
"2015-01-10 04:02:00",11.5,10.2,0.0,0.0,0,1013.4,1,1,"",92
"2015-01-10 04:03:00",11.5,10.2,0.0,0.0,0,1013.3,1,3,"",92
"2015-01-10 04:04:00",11.5,10.2,0.0,0.0,0,1013.3,2,7,"",92
"2015-01-10 04:05:00",11.5,10.2,0.0,0.0,0,1013.2,3,5,"",92
"2015-01-10 04:06:00",11.5,10.2,0.0,0.0,0,1013.2,5,16,"",92
"2015-01-10 04:07:00",11.5,10.2,0.0,0.0,0,1013.3,5,5,"",92
"2015-01-10 04:08:00",11.5,10.2,0.0,0.0,0,1013.3,1,3,"",92
"2015-01-10 04:09:00",11.5,10.2,0.0,0.0,0,1013.3,2,3,"",92
"2015-01-10 04:10:00",11.5,10.2,0.0,0.0,0,1013.4,2,5,"",92
"2015-01-10 04:11:00",11.5,10.2,0.0,0.0,0,1013.3,2,5,"",92
"2015-01-10 04:12:00",11.5,10.3,0.0,0.0,0,1013.3,2,7,"",92
"2015-01-10 04:13:00",11.5,10.2,0.0,0.0,0,1013.3,3,8,"",92
"2015-01-10 04:14:00",11.5,10.2,0.0,0.0,0,1013.2,3,8,"",92
"2015-01-10 04:15:00",11.5,10.2,0.0,0.0,0,1013.1,2,5,"",92
"2015-01-10 04:16:00",11.5,10.2,0.0,0.0,0,1013.1,1,3,"",92
"2015-01-10 04:17:00",11.5,10.2,0.0,0.0,0,1013.1,2,5,"",92
"2015-01-10 04:18:00",11.5,10.3,0.0,0.0,0,1013.1,2,5,"",92
"2015-01-10 04:19:00",11.5,10.2,0.0,0.0,0,1013.1,2,7,"",92
"2015-01-10 04:20:00",11.5,10.3,0.0,0.0,0,1013.0,2,7,"",92
"2015-01-10 04:21:00",11.5,10.3,0.0,0.0,0,1013.0,2,3,"",92
"2015-01-10 04:22:00",11.5,10.3,0.0,0.0,0,1013.0,2,7,"",92
"2015-01-10 04:23:00",11.5,10.3,0.0,0.0,0,1013.1,2,8,"",92
"2015-01-10 04:24:00",11.5,10.3,0.0,0.0,0,1013.0,5,10,"",92
"2015-01-10 04:25:00",11.5,10.3,0.0,0.0,0,1013.0,2,5,"",92
"2015-01-10 04:26:00",11.5,10.3,0.0,0.0,0,1013.0,3,12,"",92
"2015-01-10 04:27:00",11.6,10.3,0.0,0.0,0,1012.9,3,3,"",92
"2015-01-10 04:28:00",11.6,10.3,0.0,0.0,0,1012.9,2,10,"",92
"2015-01-10 04:29:00",11.5,10.3,0.0,0.0,0,1012.9,2,3,"",92
"2015-01-10 04:30:00",11.6,10.3,0.0,0.0,0,1012.9,2,8,"",92
"2015-01-10 04:31:00",11.6,10.3,0.0,0.0,0,1012.9,2,7,"",92
"2015-01-10 04:32:00",11.6,10.3,0.0,0.0,0,1012.9,2,5,"",92
"2015-01-10 04:33:00",11.6,10.3,0.0,0.0,0,1012.9,2,3,"",92
"2015-01-10 04:34:00",11.6,10.3,0.0,0.0,0,1012.9,2,5,"",92
"2015-01-10 04:35:00",11.6,10.3,0.0,0.0,0,1012.8,2,3,"",92
"2015-01-10 04:36:00",11.6,10.3,0.0,0.0,0,1012.8,1,7,"",92
"2015-01-10 04:37:00",11.6,10.1,0.0,0.0,0,1012.8,2,3,"",91
"2015-01-10 04:38:00",11.6,10.3,0.0,0.0,0,1012.8,2,5,"",92
"2015-01-10 04:39:00",11.6,10.1,0.0,0.0,0,1012.8,2,3,"",91
"2015-01-10 04:40:00",11.6,10.1,0.0,0.0,0,1012.7,1,8,"",91
"2015-01-10 04:41:00",11.6,10.1,0.0,0.0,0,1012.7,3,8,"",91
"2015-01-10 04:42:00",11.6,10.1,0.0,0.0,0,1012.7,2,3,"",91
"2015-01-10 04:43:00",11.6,10.1,0.0,0.0,0,1012.7,2,12,"",91
"2015-01-10 04:44:00",11.6,10.1,0.0,0.0,0,1012.7,5,8,"",91
"2015-01-10 04:45:00",11.6,10.1,0.0,0.0,0,1012.6,2,3,"",91
"2015-01-10 04:46:00",11.6,10.1,0.0,0.0,0,1012.7,1,3,"",91
"2015-01-10 04:47:00",11.6,10.1,0.0,0.0,0,1012.6,2,8,"",91
"2015-01-10 04:48:00",11.6,10.1,0.0,0.0,0,1012.6,3,16,"",91
"2015-01-10 04:49:00",11.6,10.1,0.0,0.0,0,1012.5,6,5,"",91
"2015-01-10 04:50:00",11.6,10.2,0.0,0.0,0,1012.6,2,7,"",91
"2015-01-10 04:51:00",11.6,10.2,0.0,0.0,0,1012.5,2,3,"",91
"2015-01-10 04:52:00",11.6,10.2,0.0,0.0,0,1012.5,3,5,"",91
"2015-01-10 04:53:00",11.6,10.2,0.0,0.0,0,1012.4,3,8,"",91
"2015-01-10 04:54:00",11.6,10.2,0.0,0.0,0,1012.5,3,5,"",91
"2015-01-10 04:55:00",11.6,10.2,0.0,0.0,0,1012.5,2,5,"",91
"2015-01-10 04:56:00",11.6,10.2,0.0,0.0,0,1012.5,2,7,"",91
"2015-01-10 04:57:00",11.6,10.2,0.0,0.0,0,1012.4,2,3,"",91
"2015-01-10 04:58:00",11.6,10.4,0.0,0.0,0,1012.4,1,10,"",92
"2015-01-10 04:59:00",11.6,10.4,0.0,0.0,0,1012.4,3,8,"",92
"2015-01-10 05:00:00",11.6,10.4,0.0,0.0,0,1012.3,6,8,"",92
"2015-01-10 05:01:00",11.6,10.4,0.0,0.0,0,1012.3,3,7,"",92
"2015-01-10 05:02:00",11.6,10.4,0.0,0.0,0,1012.3,5,8,"",92
"2015-01-10 05:03:00",11.6,10.4,0.0,0.0,0,1012.3,3,5,"",92
"2015-01-10 05:04:00",11.6,10.4,0.0,0.0,0,1012.3,3,7,"",92
"2015-01-10 05:05:00",11.6,10.4,0.0,0.0,0,1012.3,3,7,"",92
"2015-01-10 05:06:00",11.6,10.4,0.0,0.0,0,1012.3,2,3,"",92
"2015-01-10 05:07:00",11.6,10.4,0.0,0.0,0,1012.2,2,10,"",92
"2015-01-10 05:08:00",11.6,10.4,0.0,0.0,0,1012.3,5,10,"",92
"2015-01-10 05:09:00",11.6,10.4,0.0,0.0,0,1012.4,3,5,"",92
"2015-01-10 05:10:00",11.6,10.4,0.0,0.0,0,1012.4,2,14,"",92
"2015-01-10 05:11:00",11.6,10.4,0.0,0.0,0,1012.4,6,14,"",92
"2015-01-10 05:12:00",11.6,10.4,0.0,0.0,0,1012.3,2,5,"",92
"2015-01-10 05:13:00",11.6,10.4,0.0,0.0,0,1012.3,2,8,"",92
"2015-01-10 05:14:00",11.6,10.4,0.0,0.0,0,1012.3,3,10,"",92
"2015-01-10 05:15:00",11.6,10.4,0.0,0.0,0,1012.3,3,12,"",92
"2015-01-10 05:16:00",11.6,10.4,0.0,0.0,0,1012.2,6,12,"",92
"2015-01-10 05:17:00",11.6,10.4,0.0,0.0,0,1012.2,3,5,"",92
"2015-01-10 05:18:00",11.6,10.4,0.0,0.0,0,1012.2,2,12,"",92
"2015-01-10 05:19:00",11.6,10.4,0.0,0.0,0,1012.3,2,3,"",92
"2015-01-10 05:20:00",11.6,10.4,0.0,0.0,0,1012.3,3,10,"",92
"2015-01-10 05:21:00",11.6,10.4,0.0,0.0,0,1012.3,5,8,"",92
"2015-01-10 05:22:00",11.6,10.4,0.0,0.0,0,1012.2,3,7,"",92
"2015-01-10 05:23:00",11.6,10.4,0.0,0.0,0,1012.3,3,3,"",92
"2015-01-10 05:24:00",11.6,10.4,0.0,0.0,0,1012.3,2,7,"",92
"2015-01-10 05:25:00",11.6,10.3,0.0,0.0,0,1012.2,3,5,"",92
"2015-01-10 05:26:00",11.6,10.3,0.0,0.0,0,1012.2,3,10,"",92
"2015-01-10 05:27:00",11.6,10.5,0.0,0.0,0,1012.2,6,7,"",93
"2015-01-10 05:28:00",11.6,10.5,0.0,0.0,0,1012.2,2,7,"",93
"2015-01-10 05:29:00",11.6,10.5,0.0,0.0,0,1012.1,3,7,"",93
"2015-01-10 05:30:00",11.6,10.5,0.0,0.0,0,1012.2,3,3,"",93
"2015-01-10 05:31:00",11.6,10.5,0.0,0.0,0,1012.1,2,5,"",93
"2015-01-10 05:32:00",11.6,10.5,0.0,0.0,0,1012.0,2,3,"",93
"2015-01-10 05:33:00",11.6,10.5,0.0,0.0,0,1012.0,2,12,"",93
"2015-01-10 05:34:00",11.6,10.5,0.0,0.0,0,1011.9,5,7,"",93
"2015-01-10 05:35:00",11.6,10.5,0.0,0.0,0,1011.9,2,3,"",93
"2015-01-10 05:36:00",11.5,10.4,0.0,0.0,0,1012.0,2,3,"",93
"2015-01-10 05:37:00",11.5,10.4,0.0,0.0,0,1012.0,1,3,"",93
"2015-01-10 05:38:00",11.5,10.4,0.0,0.0,0,1012.0,2,5,"",93
"2015-01-10 05:39:00",11.5,10.4,0.0,0.0,0,1011.9,2,5,"",93
"2015-01-10 05:40:00",11.5,10.4,0.0,0.0,0,1011.9,3,5,"",93
"2015-01-10 05:41:00",11.5,10.4,0.0,0.0,0,1011.8,2,3,"",93
"2015-01-10 05:42:00",11.5,10.4,0.0,0.0,0,1011.8,2,3,"",93
"2015-01-10 05:43:00",11.5,10.4,0.0,0.0,0,1011.8,5,12,"",93
"2015-01-10 05:44:00",11.5,10.4,0.0,0.0,0,1011.8,3,3,"",93
"2015-01-10 05:45:00",11.5,10.4,0.0,0.0,0,1011.9,2,5,"",93
"2015-01-10 05:46:00",11.5,10.5,0.0,0.0,0,1011.9,2,3,"",94
"2015-01-10 05:47:00",11.4,10.4,0.0,0.0,0,1011.9,2,3,"",94
"2015-01-10 05:48:00",11.4,10.4,0.0,0.0,0,1011.8,1,1,"",94
"2015-01-10 05:49:00",11.4,10.4,0.0,0.0,0,1011.8,1,5,"",94
"2015-01-10 05:50:00",11.4,10.4,0.0,0.0,0,1011.8,1,1,"",94
"2015-01-10 05:51:00",11.4,10.5,0.0,0.0,0,1011.8,1,7,"",94
"2015-01-10 05:52:00",11.4,10.5,0.0,0.0,0,1011.9,2,7,"",94
"2015-01-10 05:53:00",11.4,10.5,0.0,0.0,0,1011.8,2,12,"",94
"2015-01-10 05:54:00",11.4,10.5,0.0,0.0,0,1011.8,3,8,"",94
"2015-01-10 05:55:00",11.4,10.5,0.0,0.0,0,1011.7,2,5,"",94
"2015-01-10 05:56:00",11.4,10.5,0.0,0.0,0,1011.7,1,1,"",94
"2015-01-10 05:57:00",11.4,10.4,0.0,0.0,0,1011.8,1,3,"",94
"2015-01-10 05:58:00",11.4,10.4,0.0,0.0,0,1011.8,1,12,"",94
"2015-01-10 05:59:00",11.2,10.3,0.0,0.0,0,1011.8,3,8,"",94
"2015-01-10 06:00:00",11.2,10.3,0.0,0.0,0,1011.7,1,1,"",94
"2015-01-10 06:01:00",11.2,10.3,0.0,0.0,0,1011.8,1,1,"",94
"2015-01-10 06:02:00",11.2,10.3,0.0,0.0,0,1011.8,1,1,"",94
"2015-01-10 06:03:00",11.2,10.3,0.0,0.0,0,1011.7,1,12,"",94
"2015-01-10 06:04:00",11.2,10.3,0.0,0.0,0,1011.6,5,7,"",94
"2015-01-10 06:05:00",11.2,10.3,0.0,0.0,0,1011.6,2,5,"",94
"2015-01-10 06:07:00",11.3,10.4,0.0,0.0,0,1011.6,3,3,"",94
"2015-01-10 06:08:00",11.3,10.4,0.0,0.0,0,1011.6,5,15,"",94
"2015-01-10 06:09:00",11.3,10.4,0.0,0.0,0,1011.6,5,7,"",94
"2015-01-10 06:10:00",11.3,10.4,0.0,0.0,0,1011.5,3,7,"",94
"2015-01-10 06:11:00",11.3,10.4,0.0,0.0,0,1011.6,5,12,"",94
"2015-01-10 06:12:00",11.3,10.4,0.0,0.0,0,1011.5,3,8,"",94
"2015-01-10 06:13:00",11.3,10.6,0.0,0.0,0,1011.5,3,5,"",95
"2015-01-10 06:14:00",11.3,10.6,0.0,0.0,0,1011.5,3,10,"",95
"2015-01-10 06:15:00",11.3,10.6,0.0,0.0,0,1011.5,3,5,"",95
"2015-01-10 06:16:00",11.3,10.6,0.0,0.0,0,1011.5,3,7,"",95
"2015-01-10 06:17:00",11.3,10.6,0.0,0.0,0,1011.4,3,3,"",95
"2015-01-10 06:18:00",11.3,10.6,0.0,0.0,0,1011.5,2,7,"",95
"2015-01-10 06:19:00",11.3,10.4,0.0,0.0,0,1011.4,2,7,"",94
"2015-01-10 06:20:00",11.3,10.6,0.0,0.0,0,1011.5,2,5,"",95
"2015-01-10 06:21:00",11.3,10.6,0.0,0.0,0,1011.4,2,8,"",95
"2015-01-10 06:22:00",11.3,10.6,0.0,0.0,0,1011.3,2,1,"",95
"2015-01-10 06:23:00",11.3,10.6,0.0,0.0,0,1011.3,1,1,"",95
"2015-01-10 06:24:00",11.3,10.6,0.0,0.0,0,1011.3,1,3,"",95
"2015-01-10 06:25:00",11.3,10.6,0.0,0.0,0,1011.3,2,16,"",95
"2015-01-10 06:26:00",11.3,10.6,0.0,0.0,0,1011.2,6,8,"",95
"2015-01-10 06:27:00",11.3,10.6,0.0,0.0,0,1011.3,3,5,"",95
"2015-01-10 06:28:00",11.3,10.6,0.0,0.0,0,1011.2,2,5,"",95
"2015-01-10 06:29:00",11.3,10.5,0.0,0.0,0,1011.2,2,5,"",95
"2015-01-10 06:30:00",11.3,10.6,0.0,0.0,0,1011.2,2,5,"",95
"2015-01-10 06:31:00",11.3,10.6,0.0,0.0,0,1011.2,3,7,"",95
"2015-01-10 06:32:00",11.3,10.6,0.0,0.0,0,1011.1,2,5,"",95
"2015-01-10 06:33:00",11.3,10.6,0.0,0.0,0,1011.2,2,3,"",95
"2015-01-10 06:34:00",11.3,10.6,0.0,0.0,0,1011.1,1,3,"",95
"2015-01-10 06:35:00",11.3,10.6,0.0,0.0,0,1011.1,1,3,"",95
"2015-01-10 06:36:00",11.3,10.6,0.0,0.0,0,1011.1,0,1,"",95
"2015-01-10 06:37:00",11.3,10.5,0.0,0.0,0,1011.1,1,12,"",95
"2015-01-10 06:38:00",11.3,10.5,0.0,0.0,0,1011.1,5,7,"",95
"2015-01-10 06:39:00",11.3,10.6,0.0,0.0,0,1011.1,2,5,"",95
"2015-01-10 06:40:00",11.3,10.5,0.0,0.0,0,1011.1,2,3,"",95
"2015-01-10 06:41:00",11.3,10.6,0.0,0.0,0,1011.2,3,12,"",95
"2015-01-10 06:42:00",11.3,10.5,0.0,0.0,0,1011.1,2,3,"",95
"2015-01-10 06:43:00",11.3,10.5,0.0,0.0,0,1011.1,2,3,"",95
"2015-01-10 06:44:00",11.3,10.5,0.0,0.0,0,1011.1,1,1,"",95